Regional Weather Roundup
Issued by NWS

Home | Current Version | Previous Version | Graphics & Text | Print | Product List | Glossary On
Versions: 1 2 3 4 5 6 7 8 9 10 11 12 13 14 15 16 17 18 19 20 21 22 23 24 25 26 27 28 29 30 31 32 33 34 35 36 37 38 39 40 41 42 43 44 45 46 47 48 49 50
000
ASUS43 KTOP 181408
RWRKS

WEATHER ROUNDUP FOR KANSAS
NATIONAL WEATHER SERVICE GOODLAND KS
900 AM CDT WED OCT 18 2017

NOTE:  "FAIR" INDICATES FEW OR NO CLOUDS BELOW 12,000 FEET WITH NO
SIGNIFICANT WEATHER AND/OR OBSTRUCTIONS TO VISIBILITY.

KSZ001>006-013>018-027>032-041>047-181500-
NORTHWEST KANSAS

CITY           SKY/WX    TMP DP  RH WIND       PRES   REMARKS
GOODLAND       CLOUDY    51  34  52 W8        30.02R
HAYS           SUNNY     43  40  89 S3        29.98R
HILL CITY      CLOUDY    45  41  86 W3        29.98R
RUSSELL        SUNNY     47  45  93 S10       29.96R
$$

KSZ061>065-074>080-084>089-181500-
SOUTHWEST KANSAS

CITY           SKY/WX    TMP DP  RH WIND       PRES   REMARKS
DODGE CITY     SUNNY     51  41  68 W6        29.99R
ELKHART          N/A     50  34  54 W9          N/A
GARDEN CITY    CLOUDY    42  38  85 SW3       30.01R
GREAT BEND     CLOUDY    47  44  90 S6        29.99R
LIBERAL          N/A     43  38  82 NW6       30.02R
PRATT          SUNNY     50  43  78 S8        30.00R
$$

KSZ066>073-081>083-090>101-181500-
SOUTHEAST KANSAS

CITY           SKY/WX    TMP DP  RH WIND       PRES   REMARKS
CHANUTE        SUNNY     57  45  64 S18       30.09S
COFFEYVILLE    SUNNY     53  45  74 S9        30.10R
HUTCHINSON     SUNNY     52  47  83 S8        30.00R
MEDICINE LODGE   N/A     50  43  77 MISG      30.00R
NEWTON         SUNNY     53  44  71 S10       30.02R
PARSONS        SUNNY     55  43  63 S7G17     30.12R
WICHITA INTL   MOSUNNY   55  45  68 S14       30.03R
WICHITA JABRA  SUNNY     54  45  71 S10       30.03R
WICHITA MCCONL SUNNY     56  43  60 SW13      30.03R
WINFIELD       SUNNY     58  45  62 S15G24    30.05R
$$

KSZ007>012-019>026-033>040-048>060-102>105-181500-
NORTHEAST KANSAS

CITY           SKY/WX    TMP DP  RH WIND       PRES   REMARKS
CONCORDIA      CLOUDY    52  46  80 S14       29.96R
EMPORIA        SUNNY     52  43  71 S22G28    30.03R
LAWRENCE       SUNNY     56  46  69 SE9       30.06R
MANHATTAN      SUNNY     52  46  80 CALM      30.01R
MARYSVILLE     SUNNY     54  46  76 S12       29.98R
OLATHE IND     SUNNY     53  45  74 S14       30.07R
OLATHE EXE     SUNNY     53  44  71 S12G21    30.08R
SALINA         SUNNY     56  47  71 S14       29.99S
TOPEKA BILLARD SUNNY     57  45  64 SW8       30.04R
TOPEKA FORBES  SUNNY     57  45  64 S13       30.03R
$$




USA.gov is the U.S. government's official web portal to all federal, state and local government web resources and services.